Regional Weather Roundup
Issued by NWS

Home | Current Version | Previous Version | Text Only | Print | Product List | Glossary Off
Versions: 1 2 3 4 5 6 7 8 9 10 11 12 13 14 15 16 17 18 19 20 21 22 23 24 25 26 27 28 29 30 31 32 33 34 35 36 37 38 39 40 41 42 43 44 45 46 47 48 49 50

000
ASUS43 KMKX 031311
RWRWI

WISCONSIN REGIONAL WEATHER ROUNDUP
NATIONAL WEATHER SERVICE MILWAUKEE/SULLIVAN WI
800 AM CDT WED JUN 03 2015

NOTE: "FAIR" INDICATES FEW OR NO CLOUDS BELOW 12,000 FEET WITH NO
SIGNIFICANT WEATHER AND/OR OBSTRUCTIONS TO VISIBILITY.

WIZ001-002-006>008-014>016-023>028-031400-
NORTHWEST WISCONSIN

CITY           SKY/WX    TMP DP  RH WIND       PRES   REMARKS
SUPERIOR ARPT  PTSUNNY   52  49  91 CALM      29.87F
ASHLAND        CLOUDY    60  55  83 S6        29.92F
HAYWARD        CLOUDY    58  52  80 S5        29.93R
SIREN          CLOUDY    63  54  74 S7        29.89R
CUMBERLAND     CLOUDY    59  52  77 SE8       29.92R
RICE LAKE      CLOUDY    59  52  77 SE8       29.93S
CHETEK         CLOUDY    58  53  83 SE9       29.92F
LADYSMITH      LGT RAIN  60  52  74 SE7       29.97F
EAU CLAIRE     CLOUDY    62  52  69 SE14      29.93F
MENOMONIE      CLOUDY    62  54  76 SE9       29.92F
NEW RICHMOND   CLOUDY    62  55  75 S10       29.89S
OSCEOLA        CLOUDY    64  56  75 S8        29.91R
$$

WIZ003>005-009-010-017-018-031400-
NORTH CENTRAL WISCONSIN

CITY           SKY/WX    TMP DP  RH WIND       PRES   REMARKS
MANITOWISH WTR PTSUNNY   60  51  72 SW10G16   29.98S
ARBOR VITAE    PTSUNNY   62  52  70 S9G17     29.99F
WOODRUFF       PTSUNNY   62  52  70 S9G17     29.99F
RHINELANDER    MOSUNNY   60  49  66 SW8       30.02S
EAGLE RIVER    MOSUNNY   60  46  60 SW7       30.01S
LAND O LAKES   MOSUNNY   62  49  61 SW6       30.01S
PHILLIPS       MOSUNNY   59  51  73 S9        29.96F
TOMAHAWK       MOSUNNY   58  49  73 S5        30.01F
MEDFORD        SUNNY     57  50  78 S7        30.00F
MERRILL        SUNNY    N/A N/A N/A S7        30.03S
$$

WIZ029-030-035-036-043>047-031400-
CENTRAL WISCONSIN

CITY           SKY/WX    TMP DP  RH WIND       PRES   REMARKS
WAUSAU         SUNNY     59  48  67 VRB6      30.01F
MOSINEE        SUNNY     59  52  77 S10       30.04
MARSHFIELD     SUNNY     59  50  72 S10       30.01F
STEVENS POINT  SUNNY     60  48  66 S9G17     30.04S
WAUPACA        SUNNY     61  52  72 S8        30.06S
WAUTOMA        SUNNY     61  52  72 S7        30.06S
WISC RAPIDS    SUNNY     62  48  60 S8        30.04F
CAMP DOUGLAS   NOT AVBL
$$

WIZ011>013-019>022-031-037>040-048>050-031400-
NORTHEAST WISCONSIN

CITY           SKY/WX    TMP DP  RH WIND       PRES   REMARKS
ANTIGO         SUNNY     57  48  72 SW10      30.05S
SHAWANO        SUNNY     61  50  67 S5        30.06S
OCONTO         SUNNY     61  50  67 SW10G16   30.06S
STURGEON BAY   MOSUNNY   59  46  63 S15       30.10R
GREEN BAY      SUNNY     59  50  72 S9        30.07R
MANITOWOC      MOSUNNY   58  49  72 S7        30.10R
APPLETON         N/A     59  48  67 S9        30.08R
CLINTONVILLE   SUNNY     59  50  72 S8        30.06S
OSHKOSH        SUNNY     61  51  70 S10       30.07S
$$

WIZ032>034-041-042-053>061-031400-
SOUTHWEST WISCONSIN

CITY           SKY/WX    TMP DP  RH WIND       PRES   REMARKS
LA CROSSE      SUNNY     65  54  67 S12       29.96F
SPARTA         SUNNY     64  51  62 S9        29.98F
VIROQUA        SUNNY     60  51  72 SE12      30.00F
BOSCOBEL       SUNNY     62  51  67 VRB3      30.00F
PRAIRIE DU CHI SUNNY     62  52  70 SE6       29.98F
PLATTEVILLE    SUNNY     62  55  77 SE12      30.02F
$$

WIZ056-057-062-063-064-067-068-031400-
SOUTH CENTRAL WISCONSIN

CITY           SKY/WX    TMP DP  RH WIND       PRES   REMARKS
REEDSBURG      SUNNY     60  53  76 SE9       30.03S
BARABOO/DELLS  SUNNY     61  52  72 S9        30.04F
LONE ROCK      SUNNY     63  52  67 SE6       30.03F
MINERAL POINT  SUNNY     61  54  77 SE10      30.03F
MADISON        MOSUNNY   61  51  70 S12       30.05F
MIDDLETON      SUNNY     64  50  61 S12       30.05F
WATERTOWN      SUNNY     59  53  80 S6        30.08R
MONROE         PTSUNNY   59  54  82 S9        30.05F
JANESVILLE     PTSUNNY   63  52  67 S12       30.07
$$

WIZ051-052-058>065-066-070>072-031400-
SOUTHEAST WISCONSIN

CITY           SKY/WX    TMP DP  RH WIND       PRES   REMARKS
MILWAUKEE      PTSUNNY   59  51  75 S8        30.09R
WAUKESHA       SUNNY     57  48  72 S5        30.10S
MILWAUKEE/TIMM SUNNY     57  48  72 S5        30.10R
RACINE         SUNNY     60  48  64 S12       30.11R
BURLINGTON     SUNNY     56  50  79 SW5       30.09R
KENOSHA        SUNNY     61  52  72 S9        30.09R
FOND DU LAC    SUNNY     61  51  70 S10       30.08R
SHEBOYGAN      MOSUNNY   56  49  77 S7        30.10R
WEST BEND      SUNNY     57  46  67 S6        30.09R
JUNEAU         SUNNY     60  51  71 S10       30.09S
$$

LSZ147-162-031400-
LAKE SUPERIOR

STATION/POSITION TIME  TEMP    WIND        PRES    WAVE
                       AIR SEA DIR/SP/G            HT/PER
                 (UTC) (F)     (DEG/KT/KT) (MB)    (FT/S)
W MID LAKE BUOY  1250   45 37  210/  8/ 17   N/A     0
DEVILS ISLAND    1300   57     160/ 13/ 21   N/A
PORT WING        1220   53     130/  2/ 17   N/A
SAXON HARBOR     1300   57      CALM  / 11   N/A
$$

LMZ867-665-643>646-031400-
LAKE MICHIGAN

STATION/POSITION TIME  TEMP    WIND        PRES    WAVE
                       AIR SEA DIR/SP/G            HT/PER
                 (UTC) (F)     (DEG/KT/KT) (MB)    (FT/S)
CHAMBERS ISLAND  1200   56     160/  6/  9   N/A
N MID LAKE BUOY  1250   42 37  200/ 12/ 12   N/A     1
NORTHPORT PIER   1200   55     160/  8/ 11   N/A
SISTER BAY       1103   52     160/ 12/ 16   N/A
ALGOMA LAKESHORE 1109          190/  6/  7   N/A
KEWAUNEE LAKESHO 1200   49     170/  9/ 10   N/A
SHEBOYGAN LAKESH 1300   48     150/ 11/ 12   N/A
PORT WASHINGTON  1200   54     170/  2/  3   N/A
ATWATER BUOY     1200   49 49  130/  6/  8   N/A
MILWAUKEE LAKESH 1200   52      80/  3/  4   N/A
S MID LAKE BUOY  1250   44 39  160/  4/  4   N/A     0
KENOSHA   LAKESH 1300   53     150/  5/  6   N/A
$$

TC  - TEMPERATURE IN CELSIUS
VSB - VISIBILITY IN STATUTE MILES
WCI - WIND CHILL INDEX
HX  - HEAT INDEX



USA.gov is the U.S. government's official web portal to all federal, state and local government web resources and services.